Location: Newark
(27.9675°N, 86.8869°E)
Time: 07:47:29
(UTC+00:00)

Courier 1B Rocket - Pass Details

Date: 22 October 2019
Orbit: 920 x 1202 km, 28.2° (Epoch: 20 November)

Event Time Altitude Azimuth Distance (km) Brightness Sun altitude
Exits shadow 20:52:32 16° 84° (E) 2,194 7.3 -45.7°
Drops below altitude 10° 20:53:41 10° 83° (E) 2,606 7.8 -45.4°
Sets 20:56:17 0° 82° (E) 3,558 8.7 -44.9°
